Regional Weather Roundup
Issued by NWS

Home | Current Version | Previous Version | Graphics & Text | Print | Product List | Glossary On
Versions: 1 2 3 4 5 6 7 8 9 10 11 12 13 14 15 16 17 18 19 20 21 22 23 24 25 26 27 28 29 30 31 32 33 34 35 36 37 38 39 40 41 42 43 44 45 46 47 48 49 50
000
ASUS45 KABQ 311501
RWRNM
WEATHER ROUNDUP FOR NEW MEXICO
NATIONAL WEATHER SERVICE ALBUQUERQUE NM
900 AM MDT THU JUL 31 2014

NOTE: "FAIR" MEANS FEW OR NO CLOUDS BELOW 12,000 FEET AGL WITH NO
       SIGNIFICANT WEATHER OR OBSTRUCTIONS TO VISION.

      THIS PRODUCT IS RELEASED AS TWO VERSIONS.  ONE VERSION NEAR
      THE TOP OF THE HOUR CONTAINING PRELIMINARY DATA FROM ALBUQUERQUE
      AND OTHER STATIONS.  A FINAL VERSION WITH ADDITIONAL DATA IS
      ISSUED ABOUT 10 MINUTES AFTER THE HOUR.

NMZ501-503-504-510>518-311600-
NORTHWEST PLATEAU/NORTHCENTRAL MOUNTAINS

CITY           SKY/WX    TMP DP  RH WIND       PRES   REMARKS
FARMINGTON     SUNNY     73  55  53 E7        30.22S
LOS ALAMOS     CLOUDY    57  57  98 S7        30.40S
SANTA FE       CLOUDY    62  55  77 S10       30.36R
TAOS           CLOUDY    61  52  72 W8        30.40S
ANGEL FIRE     PTSUNNY   57  53  85 CALM      30.46S

$$
NMZ402-403-502-505>509-311600-
WESTCENTRAL MOUNTAINS/SOUTHWEST MOUNTAINS

CITY           SKY/WX    TMP DP  RH WIND       PRES   REMARKS
GALLUP         MOSUNNY   71  56  58 SE7       30.30R

$$
NMZ407-409-411-412-311600-
SOUTHERN DESERTS

CITY           SKY/WX    TMP DP  RH WIND       PRES   REMARKS
LORDSBURG      FAIR      75  57  53 E13G18    30.21S
DEMING         CLOUDY    72  65  78 E7        30.23R
LAS CRUCES     CLOUDY    71  63  78 CALM      30.25R
HOLLOMAN AFB   CLOUDY    72  66  83 E5        30.22R
T OR C         MOSUNNY   70  60  70 S3        30.25S

$$
NMZ519>523-311600-
CENTRAL VALLEYS/CENTRAL HIGHLANDS

CITY           SKY/WX    TMP DP  RH WIND       PRES   REMARKS
ALBUQUERQUE    PTSUNNY   69  57  65 NE6       30.30S
DOUBLE EAGLE   PTSUNNY   66  57  72 CALM      30.33S
CLINES CORNERS CLOUDY    55  54  96 S7        30.40R FOG
BELEN          FAIR      68  61  78 W5        30.30R
SOCORRO        FAIR      71  58  65 NE3       30.27S

$$
NMZ524>526-539-540-311600-
SOUTHCENTRAL MOUNTAINS

CITY           SKY/WX    TMP DP  RH WIND       PRES   REMARKS
RUIDOSO        NOT AVBL

$$
NMZ527>531-311600-
NORTHEAST HIGHLANDS/NORTHEAST PLAINS

CITY           SKY/WX    TMP DP  RH WIND       PRES   REMARKS
LAS VEGAS      FOG       55  54  96 SE10      30.39R VSB<1/4
RATON          CLOUDY    58  55  90 S6        30.34S
CLAYTON        MOSUNNY   64  48  56 SE5       30.31S

$$
NMZ532>537-311600-
EASTCENTRAL PLAINS

CITY           SKY/WX    TMP DP  RH WIND       PRES   REMARKS
TUCUMCARI      CLOUDY    66  55  67 E6        30.28R
CANNON AFB     NOT AVBL
CLOVIS AIRPORT NOT AVBL

$$
NMZ028-029-538-311600-
SOUTHEAST PLAINS

CITY           SKY/WX    TMP DP  RH WIND       PRES   REMARKS
ROSWELL        CLOUDY    69  61  75 NE6       30.25F
ARTESIA        LGT RAIN  64  64 100 NW3       30.25S
CARLSBAD       LGT RAIN  66  63  90 N7        30.23R FOG
HOBBS          PTSUNNY   68  57  68 N14       30.25R


$$



USA.gov is the U.S. government's official web portal to all federal, state and local government web resources and services.